STARLINK-1268 (45385 NORAD) Tracking and Keplerian Element Data

This shows tracking and keplerian element data for the satellite.

Feedback or suggestion? Click here.




ElementValue
Catalog45385
NameSTARLINK-1268
Epoch Orbit1163
Epoch Day148.51193431
Epoch Year2020
RAAN271.576
Inclination52.9998
Eccentricity0.0002527
Argument of Perigee91.4951
Mean Anonmoly268.6351
Mean Motion15.63703071
Decay Rate0.00023562
L11 45385U 20019AB 20148.51193431 .00023562 00000-0 25287-3 0 9994
L22 45385 52.9998 271.5760 0002527 91.4951 268.6351 15.63703071 11637

Live tracking and technical data element details for STARLINK-1268 (NORAD 45385). STARLINK-1268 can be tracked NOW for your location showing map with azimuth and elevation plus other details from your city location.

Track the satellite on the map from your city or location and see movement details for azimuth, elevation, latitude, longitude, range, height, and movement on the map or in text.







IsCatalogInMostPopularTable: catalog: 45385, numindb: 17
Update: records affected: 1



GetName: 45385 STARLINK-1268

Hit Count: updated at: Sat, 30 May 2020 13:45:48 GMT